Location: Austin
(30.3000°N, 97.7500°W)
Time: 22:43:16
(UTC-05:00)

Cosmos 1862 - Pass Details

Date: 06 May 2026
Orbit: 465 x 478 km, 82.5° (Epoch: 13 May)

Event Time Altitude Azimuth Distance (km) Brightness Sun altitude
Rises 20:41:54 0° 11° (N) 2,501 6.9 -6.8°
Reaches altitude 10° 20:44:20 10° 27° (NNE) 1,620 5.7 -7.2°
Maximum altitude 20:47:06 21° 79° (E) 1,082 4.4 -7.8°
Drops below altitude 10° 20:49:52 10° 131° (SE) 1,610 5.1 -8.3°
Enters shadow 20:49:52 10° 131° (SE) 1,611 5.1 -8.3°
